RH
34 30 25 20 18 19 18 14 13 17 23 30 34 35 38 41 43 46 50 52 54 55 56 58 60 59 57 56 55 54 53 53 54 56 58 58 61 65 69 73 70 67 71 76 79 78 77 78 80 82 85 85 83 82 79 76 75 72 66 64 72 85 93 97 100 100 94 86 86 94 100 100 98 98 97 96 96 97 98 100 100 100 100 100 100
37 34 28 21 19 19 18 16 15 19 25 31 34 35 38 41 45 49 50 52 55 56 56 58 61 62 62 60 58 57 56 56 58 59 59 60 62 67 71 73 70 68 73 78 80 81 81 80 82 85 87 87 86 86 84 79 76 75 71 67 68 76 82 87 95 102 96 86 83 82 86 93 96 94 94 93 92 92 93 95 98 100 100 100 100
40 36 31 24 20 18 18 17 18 21 27 32 36 37 38 42 47 51 53 54 56 57 58 58 61 63 64 64 62 61 60 60 61 62 62 62 64 68 73 74 71 71 73 77 81 83 83 83 84 87 90 89 88 88 88 85 80 76 74 72 71 73 78 81 91 101 95 88 91 88 84 90 92 90 89 88 88 89 88 88 91 95 99 100 100
43 39 34 28 22 18 18 19 19 23 29 35 39 40 42 45 48 51 55 56 56 58 59 58 60 62 64 66 66 66 65 64 64 65 64 65 66 69 74 75 72 72 75 79 81 82 82 83 83 87 90 90 88 89 90 89 85 79 73 72 71 72 75 79 88 100 96 86 90 96 96 96 94 90 86 82 82 84 84 83 84 86 89 94 98
46 42 37 32 24 19 18 19 21 25 31 38 42 44 47 49 49 51 55 57 59 59 60 60 60 62 64 67 69 69 70 69 68 69 67 67 69 71 76 77 74 73 77 81 82 82 84 83 82 85 87 86 85 87 89 90 92 89 80 73 69 68 72 76 83 95 98 88 84 92 99 101 99 96 90 84 81 81 80 78 78 78 78 81 85
49 44 39 35 28 21 19 20 22 27 34 41 45 49 53 52 51 52 54 58 60 61 62 62 61 63 66 69 72 72 72 73 72 71 70 70 71 74 78 79 75 75 79 80 80 84 88 85 84 89 90 89 90 91 93 94 95 96 90 80 71 66 67 71 76 88 98 92 84 88 96 99 101 100 95 89 84 79 77 75 72 71 71 70 71
49 45 42 38 31 24 20 21 23 28 36 44 48 54 58 54 52 54 55 58 61 62 64 64 64 66 68 71 74 74 74 75 74 74 74 73 73 77 82 82 79 78 80 79 80 86 91 90 91 95 96 96 98 98 99 100 98 98 97 91 80 69 65 66 69 77 85 83 80 86 93 96 100 100 92 89 87 80 74 70 67 65 64 63 63
48 47 44 39 35 27 21 22 24 29 38 47 53 60 61 56 54 55 56 59 61 63 65 66 68 70 71 73 75 76 77 76 75 76 76 75 76 80 84 85 83 82 81 80 81 85 90 94 96 98 99 100 100 100 100 100 100 99 99 98 91 78 66 62 65 69 72 74 75 81 88 93 99 97 89 86 88 83 75 70 66 62 61 60 58
52 48 45 41 38 30 23 23 25 30 40 49 58 63 62 58 56 55 58 60 62 64 67 69 71 72 73 75 76 78 78 76 76 78 77 77 81 84 88 90 88 85 82 78 78 83 91 98 100 99 100 100 99 101 100 100 101 101 100 101 99 88 72 60 61 65 68 69 72 75 80 87 93 96 95 90 85 82 78 75 71 65 61 59 57
59 50 47 44 41 34 26 24 26 32 42 52 62 66 64 61 58 55 58 62 64 66 68 70 72 72 74 76 78 79 78 76 77 79 79 81 85 88 92 95 92 89 83 75 76 84 93 100 101 100 100 100 99 100 100 100 100 98 97 99 101 98 83 66 58 60 65 67 69 70 74 80 85 90 94 90 84 83 81 77 73 68 64 61 57
68 54 49 46 43 37 29 26 28 34 43 55 65 69 66 63 59 57 59 62 65 68 70 72 72 73 75 78 79 79 77 77 79 81 83 86 89 92 96 98 97 93 83 76 80 88 95 98 96 93 96 99 99 99 100 101 99 96 92 92 98 101 94 78 62 54 56 62 65 67 68 72 80 85 88 86 83 82 81 79 77 74 69 64 58
75 59 52 48 45 40 32 27 30 35 45 59 69 72 70 66 61 59 59 62 66 69 72 73 74 76 77 78 79 79 78 78 81 83 86 90 95 97 99 100 101 96 86 83 87 90 92 95 94 89 90 96 99 99 97 92 91 95 97 96 98 101 99 94 82 66 56 53 57 63 66 67 73 79 83 85 83 81 81 81 78 74 70 65 62
83 67 56 51 47 43 35 30 31 37 48 63 73 75 72 68 63 60 61 64 67 69 72 74 76 77 78 79 80 80 79 81 84 86 88 91 98 101 100 100 101 95 88 90 92 87 85 92 97 95 91 94 98 95 89 87 88 93 99 101 100 99 100 101 99 91 78 63 54 54 59 63 67 72 77 80 80 81 82 81 79 77 74 70 66
87 77 64 55 50 45 38 33 34 40 52 68 78 77 74 71 66 63 64 65 67 70 73 76 78 78 79 80 81 81 81 83 85 88 89 91 97 101 100 100 101 95 90 94 97 93 89 94 100 98 91 92 98 97 93 95 98 98 100 102 98 96 97 98 100 101 98 89 76 62 55 55 58 63 68 69 71 73 74 75 76 75 75 74 69
89 88 75 62 55 48 41 36 36 42 57 74 81 79 76 74 70 66 66 67 70 73 75 77 79 80 80 81 83 82 82 85 88 89 90 93 98 102 100 99 101 98 94 98 101 98 96 99 99 96 91 91 97 100 100 100 100 100 100 101 98 96 95 93 95 98 99 100 96 82 69 62 59 57 57 57 58 59 62 66 68 69 71 71 69
89 94 87 73 62 52 44 39 39 46 63 80 84 81 79 77 73 70 70 70 73 75 76 78 80 81 82 84 85 84 83 87 90 90 92 96 100 101 100 99 101 99 96 98 101 99 99 101 98 95 95 95 93 96 100 101 100 100 100 98 100 101 95 91 95 99 98 99 99 92 86 82 79 74 71 70 68 65 66 69 70 72 74 72 70
89 97 97 85 72 59 49 43 42 51 71 85 86 83 82 80 77 75 72 72 73 75 78 80 82 83 84 85 88 87 86 89 93 93 96 100 101 100 100 100 100 99 98 99 100 100 100 100 95 91 93 95 94 94 99 100 97 99 100 96 96 95 89 89 98 100 99 100 100 97 93 91 91 91 92 94 92 89 89 88 85 83 82 83 82
90 97 101 95 84 71 57 48 45 57 78 89 89 87 86 83 80 78 75 74 74 77 80 82 83 84 85 88 92 91 89 92 97 98 99 101 101 100 100 100 100 100 100 100 100 100 100 100 96 91 87 89 90 92 97 99 94 91 92 90 89 84 79 86 95 97 97 98 98 98 98 97 98 99 100 100 100 100 100 99 99 96 93 95 96
94 97 101 99 94 82 67 55 51 63 84 93 91 91 89 85 83 80 77 75 75 79 83 84 84 85 87 91 96 96 93 94 99 102 101 101 100 100 100 100 100 100 100 100 100 100 100 100 98 95 91 90 91 92 96 100 97 92 92 93 91 84 82 91 98 99 100 100 98 99 100 99 100 101 101 101 100 100 100 99 100 101 99 100 99
96 98 100 100 99 91 76 61 56 69 90 96 94 93 92 87 84 80 78 76 76 80 85 85 85 87 92 96 99 99 96 96 100 103 101 100 100 100 100 100 100 100 100 100 100 100 100 100 98 97 95 94 96 98 99 100 100 98 98 100 95 90 91 95 95 96 99 96 95 99 100 99 100 101 100 100 100 99 99 98 98 99 99 101 100
97 97 99 100 101 97 85 69 62 74 93 99 96 95 93 88 84 81 80 79 78 81 85 87 88 91 97 101 101 101 99 97 100 102 100 100 100 100 100 100 100 100 100 100 101 100 98 96 94 91 89 90 94 100 101 100 101 100 100 100 98 97 97 89 82 87 94 93 94 99 100 99 101 100 100 101 97 91 89 88 90 93 93 96 99
98 99 100 99 100 100 93 79 69 78 95 101 98 96 94 89 85 83 82 80 80 83 87 89 92 95 100 103 102 103 102 98 98 101 100 100 101 99 100 100 100 100 100 100 100 98 94 92 90 89 90 93 98 101 100 100 101 100 100 100 99 100 99 91 86 89 94 94 96 97 95 95 95 94 97 101 97 88 84 83 87 93 93 92 94
99 100 100 100 100 101 99 88 78 83 97 102 99 97 94 90 86 84 84 81 82 86 90 92 96 99 102 104 102 102 102 99 98 100 101 100 100 100 100 101 100 100 100 100 100 99 96 95 95 96 98 99 99 100 100 101 100 98 96 95 96 98 99 98 97 97 96 97 97 94 92 91 91 88 87 89 93 95 94 92 93 98 99 98 97
99 100 99 100 100 100 101 96 88 91 100 102 101 98 93 90 87 85 84 82 83 88 93 96 100 101 102 103 101 100 101 101 100 100 100 99 99 99 100 100 100 100 100 100 101 100 99 98 97 99 100 98 97 99 101 101 100 99 98 97 98 100 100 100 100 100 99 100 100 99 97 97 97 91 79 73 82 95 100 100 99 100 100 100 100
98 101 100 100 100 100 102 100 96 97 101 101 101 98 94 90 88 86 83 82 84 90 96 99 102 102 102 102 100 100 102 103 102 101 99 98 97 97 97 97 98 100 101 100 100 99 99 100 99 100 101 99 99 100 101 100 100 100 100 100 100 100 100 100 100 100 100 100 100 100 100 100 101 96 85 80 88 97 100 100 100 100 100 100 99
94 100 100 100 100 100 101 101 101 101 101 101 101 100 95 90 88 85 83 83 87 93 98 101 102 102 102 101 100 100 102 102 103 102 101 99 97 96 95 94 97 100 101 100 100 100 100 100 100 100 100 100 100 100 100 100 101 100 100 100 101 100 101 101 99 99 99 99 99 101 100 98 96 96 94 94 95 94 95 99 101 99 100 101 100
91 99 100 100 100 100 100 101 102 102 101 101 101 99 95 90 87 84 83 85 91 96 99 101 101 101 101 100 100 101 102 102 103 101 99 96 92 90 91 94 97 100 100 98 99 100 100 100 100 100 100 100 100 100 100 100 99 97 95 95 96 97 97 97 95 93 92 93 96 100 100 96 93 94 96 95 89 85 89 97 99 98 99 101 100
91 97 100 100 100 100 100 100 101 102 101 101 101 100 95 90 86 85 86 90 95 98 100 102 102 100 100 100 100 101 101 100 99 96 92 89 89 91 95 98 99 100 99 97 99 101 101 101 100 100 101 101 99 98 98 98 96 94 91 90 89 89 90 92 93 95 95 95 97 100 100 99 98 99 99 97 90 84 86 92 94 95 99 102 100
95 98 100 100 100 100 100 100 100 101 101 100 101 101 96 90 86 86 89 94 97 98 99 99 100 100 100 100 100 99 97 94 92 90 91 93 96 98 100 100 100 100 100 99 100 101 100 100 101 100 100 100 99 97 98 98 98 98 97 96 95 94 95 96 98 100 100 99 99 100 100 100 100 100 100 100 97 92 92 95 95 95 99 101 100
100 101 100 100 100 100 100 100 100 101 100 100 101 101 97 91 87 87 92 97 98 97 98 98 99 100 100 99 100 99 97 95 94 96 98 100 100 100 100 100 100 100 100 100 100 100 100 100 100 99 98 97 98 99 101 101 100 100 101 99 98 98 98 98 99 99 99 99 100 101 100 100 101 100 100 100 100 99 99 98 97 98 100 101 99
103 102 100 100 100 100 100 100 100 100 100 100 101 101 97 91 87 89 95 98 97 97 99 99 100 100 98 97 100 101 99 98 99 101 101 100 100 100 100 100 100 100 100 100 100 100 100 100 98 98 98 99 100 101 102 101 99 101 102 100 98 98 98 99 98 98 99 99 99 100 100 100 100 100 100 100 100 100 99 96 96 100 101 100 99
103 102 100 100 100 100 100 100 100 100 101 100 101 102 97 91 88 90 95 99 99 99 99 99 100 99 98 98 100 100 99 99 100 100 101 100 100 101 101 100 98 97 98 99 100 100 100 100 99 99 100 101 102 101 100 99 97 98 100 100 99 98 99 100 100 100 100 100 100 100 101 100 100 100 100 100 100 100 100 98 98 101 100 100 101
103 102 101 100 100 100 100 100 100 100 100 99 101 102 97 91 90 91 95 99 101 100 99 100 100 99 100 101 101 99 100 100 99 100 101 100 99 100 101 98 93 93 98 101 101 102 103 101 101 101 101 100 100 98 99 99 97 94 94 96 98 100 100 100 100 100 101 100 100 100 100 100 100 100 100 100 100 100 100 100 99 100 100 100 100
103 103 101 100 100 100 100 100 100 100 100 99 101 102 98 93 93 96 99 100 100 98 97 98 98 98 100 100 98 99 101 101 100 101 99 97 98 100 99 94 91 94 101 102 100 102 104 103 102 102 100 98 97 96 97 99 97 94 90 89 92 95 96 99 100 101 100 100 100 101 100 99 99 98 98 100 101 100 100 100 99 100 100 99 100
103 102 99 99 100 100 100 101 100 100 100 100 100 102 100 96 95 98 100 100 98 96 96 96 97 98 99 99 99 100 101 101 101 99 93 91 96 99 95 90 91 95 100 102 101 103 103 102 102 103 101 100 99 99 98 97 96 94 91 91 93 94 95 97 100 100 101 101 101 100 100 99 99 99 97 99 100 100 99 99 99 100 100 100 100
104 101 97 98 100 100 100 101 100 100 101 100 100 102 102 99 97 99 100 99 98 97 97 97 97 97 98 100 100 101 102 103 100 93 88 90 96 96 91 88 89 92 97 101 103 103 103 102 101 101 101 101 102 101 99 97 94 93 92 94 96 99 99 100 100 99 101 101 101 101 100 100 100 100 99 100 100 100 100 100 100 100 100 100 101
104 101 98 98 100 100 100 100 100 100 100 99 100 103 102 100 99 100 101 100 98 97 97 97 96 95 96 96 96 97 101 102 95 88 88 92 94 92 90 87 85 86 89 94 96 99 101 101 101 101 101 101 100 101 100 97 96 96 97 98 99 101 103 103 101 100 101 100 100 100 100 100 100 100 100 100 100 100 100 100 100 101 100 100 100
102 101 98 98 100 101 100 100 100 100 100 100 101 103 102 101 100 101 101 101 99 98 98 97 95 94 93 91 91 94 98 98 92 88 90 92 92 91 90 87 83 83 84 86 88 91 93 95 97 98 98 97 97 99 100 101 101 101 101 101 101 101 101 101 100 100 100 100 100 101 100 100 100 100 100 100 101 101 101 101 100 100 100 100 100
101 100 99 99 100 100 100 100 100 100 100 100 101 102 102 101 101 101 102 102 100 99 98 97 95 93 91 90 89 91 94 94 92 91 91 91 92 92 90 88 86 87 87 87 87 88 90 91 93 94 94 94 95 98 101 104 104 104 103 102 101 100 99 99 99 100 100 100 100 101 102 101 101 100 100 100 100 100 101 102 101 101 100 100 100
101 100 100 100 100 100 100 100 100 100 100 100 101 103 103 101 101 103 103 103 102 101 99 98 97 95 93 91 90 90 91 91 90 89 90 92 93 93 91 90 91 91 91 92 92 91 91 92 93 94 94 94 95 98 101 104 105 104 102 101 101 101 100 100 100 100 101 101 100 101 101 101 101 101 101 100 100 101 101 101 101 101 101 100 100
100 100 100 100 100 100 101 100 100 100 100 100 101 103 103 102 102 104 104 104 104 103 101 101 99 96 93 92 91 90 89 87 86 87 90 92 92 91 90 91 92 92 93 95 96 97 97 96 95 95 95 95 95 97 100 102 104 104 102 101 100 100 100 100 101 100 100 100 101 101 101 101 100 100 100 100 100 100 100 101 101 101 101 101 100
100 100 100 100 100 100 100 100 100 100 100 100 101 103 104 103 103 104 104 103 104 103 103 101 98 95 93 92 91 90 89 87 86 88 90 90 89 88 88 88 88 89 91 93 95 98 100 101 100 100 99 98 98 98 98 100 102 103 103 102 102 101 101 101 101 101 100 101 101 101 100 100 101 101 100 100 101 100 100 100 101 101 101 102 102
100 100 100 100 100 100 100 100 100 100 100 100 100 101 102 103 103 103 104 104 103 103 102 100 97 94 93 92 92 92 93 94 94 94 94 93 92 91 90 89 88 87 88 88 89 92 94 97 100 101 101 101 101 101 101 102 102 103 103 102 102 101 101 101 101 101 101 100 100 100 100 100 100 100 100 100 100 101 101 101 100 101 101 101 101
100 100 100 100 100 100 100 100 100 100 100 100 100 101 101 101 101 102 103 103 103 103 102 99 97 96 95 96 96 97 99 102 103 102 101 101 100 99 98 96 94 93 92 91 91 90 90 92 94 95 96 97 98 99 100 102 102 103 103 103 102 101 100 100 100 100 101 101 101 101 101 101 101 101 101 101 102 103 102 102 101 102 102 102 102
100 100 99 100 100 100 100 100 99 100 100 100 100 101 101 101 101 101 101 101 102 103 103 101 100 99 99 100 102 102 103 105 104 103 103 103 103 103 103 102 101 101 100 99 98 97 96 96 95 94 93 92 91 90 91 92 93 95 96 98 99 99 99 98 98 96 96 98 100 101 101 101 101 101 100 101 102 102 101 100 99 100 100 101 102
101 100 100 100 100 100 100 100 99 99 100 100 100 100 100 100 101 102 102 102 102 103 103 102 102 102 103 103 102 102 101 102 101 101 101 102 101 102 103 103 104 104 104 104 104 104 103 103 102 101 99 97 94 93 91 89 87 86 86 87 89 90 92 94 95 95 94 95 95 96 97 97 97 97 97 97 97 97 97 98 98 97 98 99 99
100 100 100 100 99 99 100 99 98 98 98 99 99 100 100 100 101 102 103 104 104 104 104 103 103 104 103 102 101 100 100 100 101 100 100 100 100 101 101 102 103 105 105 105 105 105 104 105 105 104 104 103 101 100 98 96 94 90 87 86 86 85 85 86 87 89 91 93 92 93 93 93 93 93 92 92 92 92 92 93 94 94 96 96 96
101 101 101 101 99 99 98 97 97 97 97 98 99 99 99 100 100 101 102 102 102 102 103 103 103 103 102 101 101 101 100 100 100 100 100 101 101 101 102 103 104 106 106 106 105 105 105 106 106 106 105 105 104 103 102 101 99 96 93 91 91 89 88 87 85 84 85 86 88 89 90 90 90 90 90 89 89 88 87 87 87 88 90 92 94
103 102 102 101 100 99 99 98 97 98 98 99 100 99 99 99 100 100 100 100 100 101 101 101 100 101 100 100 100 100 100 100 101 100 100 100 100 100 100 100 101 103 104 104 105 105 104 104 104 104 103 103 103 103 103 103 103 102 99 97 96 94 92 91 89 87 85 83 82 83 85 87 88 89 89 88 88 87 86 85 84 83 83 86 90
105 105 104 102 102 102 101 101 101 100 100 100 100 99 99 99 99 99 100 100 100 100 100 100 100 100 100 100 100 100 100 100 100 99 100 101 101 102 102 102 102 103 105 106 106 106 106 106 106 105 105 104 103 103 102 102 101 102 101 99 99 98 97 95 93 91 89 87 84 81 80 81 83 85 87 88 88 88 87 87 85 83 82 81 84
103 104 104 104 104 103 102 102 102 101 101 100 100 99 99 99 99 99 99 99 99 99 99 99 100 100 100 100 100 100 101 101 102 101 100 97 93 91 88 85 83 83 82 82 83 83 84 86 87 89 92 95 97 99 101 102 102 103 103 101 99 98 97 96 96 94 92 91 90 87 84 81 79 79 81 84 87 89 89 88 87 86 84 81 81
Wind_Speed
47 48 49 48 45 42 38 35 33 33 34 34 33 32 31 31 30 29 29 29 30 30 29 29 29 29 30 30 31 31 31 30 28 28 28 27 26 25 25 24 23 21 20 19 19 18 18 18 17 17 17 18 18 17 16 16 17 20 21 25 27 27 26 23 20 20 18 17 19 20 16 14 13 12 11 12 12 12 13 14 15 15 14 14 14
45 47 48 48 46 42 38 35 34 34 34 34 33 32 32 31 30 29 29 29 29 29 30 29 29 29 29 30 30 30 30 29 28 27 27 26 26 25 25 24 23 22 20 19 18 18 18 17 17 17 17 18 19 18 17 17 18 20 21 23 26 27 28 28 24 22 21 18 19 23 22 20 19 15 14 15 14 13 13 13 14 15 15 15 15
44 45 47 48 47 43 39 36 35 34 34 34 33 32 31 31 30 29 29 28 28 29 29 30 29 29 29 29 29 29 29 28 27 26 27 26 25 25 24 24 23 22 20 19 18 17 17 17 17 16 16 17 18 18 18 19 19 22 23 24 25 26 27 29 26 24 26 22 17 18 21 21 22 21 19 18 17 16 15 14 14 14 15 15 15
43 43 45 47 47 44 40 37 36 35 34 33 33 32 31 30 30 29 28 27 27 28 28 29 29 29 29 28 28 28 28 28 27 26 26 26 25 25 24 24 23 22 20 18 17 17 17 17 16 13 13 15 16 16 17 19 20 22 25 26 27 27 27 28 27 24 27 28 21 16 15 16 21 23 23 23 23 21 18 17 16 15 15 15 15
44 42 43 45 47 45 41 38 38 35 33 33 33 32 30 30 30 29 28 27 27 27 27 28 29 29 28 28 28 28 28 27 26 26 26 25 25 25 24 23 23 21 19 17 16 16 16 14 11 10 10 12 13 13 13 15 17 20 24 26 29 30 29 29 29 24 24 28 27 20 14 14 18 22 23 24 25 24 21 20 19 18 17 16 16
45 42 42 43 45 46 43 40 39 35 32 32 32 31 30 29 29 29 28 27 26 27 27 27 27 27 27 27 27 28 27 26 26 26 25 25 24 24 24 23 23 21 19 17 16 15 12 9 8 8 10 12 12 12 11 12 15 17 20 24 27 30 31 31 31 27 23 27 30 26 20 16 17 21 22 22 23 24 23 22 21 21 20 20 19
44 42 41 42 44 45 44 41 39 34 31 31 32 31 30 29 29 28 27 26 26 26 26 26 26 26 26 27 27 27 27 26 26 26 25 24 24 24 23 23 22 21 19 17 16 14 11 9 11 11 13 15 15 15 15 14 15 16 18 20 23 27 30 32 33 31 28 29 31 30 26 20 16 19 22 21 20 22 24 25 25 24 23 22 22
44 42 41 41 42 44 44 42 38 34 31 31 31 31 31 29 28 27 25 25 25 25 25 25 25 25 26 26 26 26 26 26 26 25 24 24 24 23 23 22 22 21 19 18 16 15 13 12 13 14 14 16 18 18 19 19 19 20 19 18 20 24 29 31 33 34 33 32 33 32 30 26 21 20 21 20 19 20 21 22 24 24 23 22 22
44 42 41 41 41 43 44 42 38 34 32 31 31 31 30 28 28 26 24 24 24 24 24 24 25 25 25 25 25 25 26 26 25 24 23 23 23 22 22 22 22 21 20 19 17 16 15 14 13 12 13 15 16 18 18 17 19 21 20 19 19 21 25 30 33 34 35 34 34 33 31 30 26 21 19 21 21 19 18 18 20 22 22 22 23
43 42 41 41 40 41 43 41 38 35 33 32 31 30 29 28 27 26 24 22 22 22 23 24 25 25 24 24 24 25 25 25 23 22 22 22 22 21 22 22 22 22 21 19 17 15 14 12 10 10 11 13 14 16 16 16 18 19 18 17 18 19 23 28 32 34 36 36 36 35 34 33 30 25 21 22 22 20 19 20 21 22 22 23 26
43 41 41 40 39 40 42 41 38 36 33 32 31 30 28 27 26 25 23 22 21 21 22 24 24 24 23 24 24 24 24 24 22 21 20 21 21 21 22 22 22 22 22 20 17 15 12 10 9 9 11 12 13 14 15 16 18 18 15 15 15 15 17 22 27 32 35 37 37 36 36 35 33 29 27 26 24 23 23 22 22 21 21 23 26
43 41 40 39 39 39 41 41 39 36 34 32 30 29 27 26 25 24 23 21 21 21 22 23 23 23 23 23 24 23 23 22 20 20 20 20 19 19 20 21 21 22 22 20 17 13 10 10 10 11 14 14 13 15 15 16 16 16 16 17 17 17 17 17 20 25 31 36 39 39 38 37 34 32 31 29 26 25 24 23 23 22 23 23 25
43 41 39 39 39 39 40 41 39 36 33 32 30 28 27 25 24 23 22 21 21 21 21 22 22 22 23 23 23 22 22 21 19 20 21 20 19 19 20 21 21 22 21 18 15 11 10 11 12 14 18 18 14 14 14 12 13 14 15 18 21 22 23 23 21 20 22 28 35 39 39 37 36 35 33 30 29 27 26 26 25 24 24 25 26
45 40 39 39 39 39 40 40 39 35 33 31 30 28 27 24 23 22 21 21 21 21 21 21 21 22 22 23 22 21 20 19 19 20 21 21 20 21 22 22 23 23 21 16 12 10 11 12 14 17 21 18 12 13 12 11 12 14 15 16 17 18 21 24 25 24 23 22 25 32 36 37 38 38 35 33 32 31 30 30 28 27 28 28 28
47 41 38 37 38 39 40 40 38 34 32 31 30 28 26 24 22 21 21 20 20 20 21 21 21 21 22 22 21 21 19 18 18 19 20 21 21 21 22 23 23 24 22 16 11 12 13 15 17 20 21 17 12 14 14 13 13 15 16 17 17 16 16 18 21 24 27 25 22 21 23 27 31 33 34 34 35 35 34 33 31 30 30 30 31
48 43 39 37 37 38 39 40 36 33 32 31 30 28 26 23 21 20 20 20 21 21 21 21 21 21 20 21 21 20 18 16 17 19 19 20 20 20 21 22 23 25 23 16 13 16 17 18 19 19 19 17 14 14 16 16 15 15 16 16 16 17 17 16 15 18 23 25 24 20 17 17 18 20 21 22 25 27 28 29 31 31 31 33 35
47 42 39 37 36 38 39 39 35 32 32 31 29 27 25 22 21 20 19 20 21 21 21 21 21 20 20 20 20 19 16 15 16 17 18 20 20 20 21 21 23 25 22 17 17 19 19 19 20 20 19 18 17 15 14 16 17 17 17 17 17 18 18 16 16 17 18 20 22 21 19 17 17 17 16 17 17 16 17 21 23 24 28 32 34
47 42 39 36 35 37 39 38 35 32 32 30 28 26 23 21 20 19 19 20 21 21 21 20 20 20 19 18 18 18 15 14 15 16 18 19 19 18 19 20 20 21 20 20 22 22 21 20 21 21 22 22 21 19 15 14 15 15 15 16 17 18 17 15 16 18 18 19 19 19 19 19 19 20 20 21 21 21 22 23 21 19 24 27 27
48 44 40 36 34 35 36 36 34 32 31 29 26 25 23 20 19 19 19 20 20 21 20 20 20 19 18 17 16 16 15 13 14 16 18 19 18 17 18 19 18 19 20 23 25 25 24 23 23 23 23 22 21 20 17 14 15 16 15 16 17 17 15 13 13 14 16 17 18 18 19 19 20 22 22 21 22 23 26 28 27 25 26 27 25
48 45 41 36 33 32 33 34 34 32 30 28 25 24 22 20 19 19 19 19 20 21 20 19 19 17 16 16 16 16 15 12 13 15 18 20 21 20 18 18 18 19 22 25 26 26 27 27 26 25 24 23 20 18 17 17 18 19 20 21 21 19 15 14 15 15 15 16 16 16 17 17 19 22 23 22 22 22 23 26 29 31 31 30 29
48 46 41 36 32 29 29 31 33 32 29 27 25 23 22 20 19 19 18 19 20 21 19 18 17 16 14 15 15 15 14 12 12 15 17 19 21 21 17 16 19 21 23 25 26 27 27 28 28 27 26 26 25 22 20 21 20 20 21 22 21 19 17 18 18 17 16 15 15 15 16 16 17 18 20 21 21 20 20 21 24 28 30 32 32
48 46 40 36 31 27 26 28 32 31 29 27 25 23 21 20 19 18 18 19 20 20 18 16 16 14 13 14 14 13 13 13 13 15 16 17 19 18 15 16 19 20 22 25 26 27 26 25 24 22 20 21 21 20 20 21 20 21 24 24 23 21 21 22 21 20 18 17 17 17 17 17 17 16 17 19 21 20 20 20 21 24 26 28 29
48 45 40 36 31 27 25 26 29 30 28 26 24 22 20 19 18 17 17 18 20 19 16 15 14 13 12 13 13 12 13 13 12 13 15 16 18 18 15 14 15 18 21 23 24 23 21 19 17 16 15 15 16 17 18 19 20 20 22 24 24 22 22 22 21 20 19 19 19 20 19 19 20 18 17 17 19 20 21 22 22 23 24 25 26
47 43 39 35 30 27 24 25 27 28 27 25 24 22 20 18 17 17 16 18 19 18 15 13 13 12 11 11 11 12 13 13 12 13 15 17 20 22 21 18 18 19 20 21 21 19 17 15 14 14 15 15 15 17 19 20 20 19 18 19 21 21 21 21 20 18 16 15 16 17 17 18 20 20 18 16 16 16 17 18 19 20 22 23 24
44 40 37 33 30 27 24 24 25 27 27 26 23 21 19 17 16 16 16 18 18 16 13 12 12 11 10 11 11 12 12 12 12 13 15 16 18 21 22 23 21 19 17 17 18 17 15 14 14 15 16 17 18 19 20 20 20 20 20 21 22 23 23 23 23 22 21 20 18 18 19 20 20 20 19 17 17 16 15 15 17 18 19 20 22
44 39 35 33 29 27 24 24 24 26 26 25 22 19 18 17 16 16 16 17 16 14 12 11 12 11 10 11 11 11 11 11 11 12 14 15 17 18 19 20 18 15 14 15 16 16 16 15 16 17 18 18 19 20 20 21 21 23 23 24 25 25 26 26 27 28 28 28 26 24 24 26 26 24 23 23 21 18 16 16 18 18 17 17 18
46 37 34 32 29 26 24 23 24 25 26 25 21 19 17 16 16 15 15 15 14 12 10 10 11 11 10 10 11 11 11 11 11 12 14 16 16 15 14 13 13 13 15 16 16 18 19 20 20 21 21 22 23 23 24 25 25 25 26 26 27 28 29 29 30 30 30 30 28 24 22 23 23 22 23 26 25 22 19 18 18 18 16 16 17
45 36 32 31 28 26 24 23 23 25 25 24 21 18 17 16 15 14 13 13 11 10 9 9 10 10 10 9 9 10 10 11 12 12 13 11 9 7 7 8 11 13 14 14 14 16 18 18 20 21 21 22 23 23 24 25 25 24 24 25 26 27 27 27 26 25 24 24 24 22 21 20 19 18 19 22 25 25 23 20 18 17 15 15 17
44 35 31 30 28 26 23 22 23 24 24 23 20 17 16 15 14 12 12 11 10 9 9 9 10 11 10 7 6 7 9 10 9 8 7 5 2 5 7 8 10 12 13 13 13 14 15 15 16 18 18 19 19 19 19 19 19 18 18 19 19 20 21 21 21 21 20 20 21 22 21 21 21 20 19 19 21 22 22 20 19 17 16 17 18
41 34 30 29 28 25 23 22 22 23 24 22 19 17 15 14 13 12 11 11 10 9 9 8 10 11 9 4 4 7 8 8 4 3 5 5 6 8 9 7 8 10 12 13 13 14 15 17 18 19 19 19 18 16 14 13 12 11 12 12 13 13 15 17 18 19 19 19 19 20 20 19 19 19 20 20 19 20 21 21 20 18 18 18 18
39 33 29 28 26 24 23 22 21 22 23 21 18 16 15 14 12 11 11 11 10 9 9 9 11 11 7 5 8 7 8 7 5 4 5 6 7 8 7 6 10 14 16 16 17 18 20 21 20 19 17 14 12 11 10 9 8 8 9 9 9 10 11 13 15 16 16 17 18 18 19 19 19 19 20 20 19 20 22 23 22 20 20 20 19
35 31 26 24 24 23 22 20 20 21 22 20 18 16 15 13 12 12 12 12 9 7 7 8 9 9 9 10 9 9 10 9 7 5 4 5 7 6 5 8 14 17 16 17 18 19 18 17 16 13 11 9 7 7 6 7 7 7 8 8 8 9 9 10 12 13 15 16 18 18 18 19 19 19 19 19 19 19 20 23 23 22 21 21 22
31 28 23 21 21 21 20 19 19 20 20 20 18 16 14 13 11 12 13 13 11 8 7 9 12 13 14 14 12 11 9 7 4 4 6 9 8 7 8 13 15 13 11 12 14 13 12 11 11 10 8 6 5 5 5 6 7 7 8 8 9 10 10 10 11 12 13 15 16 17 18 18 19 19 19 19 21 20 18 20 22 23 21 21 21
29 24 20 19 19 19 18 17 17 18 19 19 17 15 13 12 11 12 13 14 14 15 16 18 18 18 19 20 19 17 13 6 3 6 11 12 10 9 12 14 13 9 8 10 10 9 9 9 10 10 8 7 6 6 6 7 7 8 8 9 9 11 12 12 12 12 12 13 13 14 16 16 17 18 18 19 21 22 20 19 20 22 23 22 21
27 23 18 16 17 17 17 16 15 16 17 17 15 14 13 12 12 13 14 14 15 16 18 18 18 18 19 20 19 18 14 7 5 10 13 10 7 8 10 10 9 7 7 7 7 7 8 8 8 8 7 6 6 5 6 7 7 8 9 9 9 9 10 12 13 13 13 13 13 14 14 15 16 17 18 18 19 21 23 23 22 21 22 23 22
27 22 17 15 15 16 16 15 13 14 14 14 13 13 13 12 12 13 14 14 14 15 16 16 16 16 17 17 17 16 11 7 9 13 10 5 5 7 7 7 6 6 5 5 5 5 5 5 5 6 6 5 5 5 6 6 7 7 7 7 8 8 8 9 10 12 13 13 13 13 13 14 14 15 16 16 17 18 20 23 23 22 21 22 22
26 20 16 15 15 14 14 14 12 13 13 13 13 13 13 12 12 12 14 14 14 14 15 15 15 15 15 15 14 13 11 11 12 11 8 5 5 6 6 5 5 5 4 3 3 3 3 4 4 4 4 5 5 4 5 5 5 5 6 6 6 6 6 6 7 9 10 12 12 13 13 13 14 14 14 14 15 16 17 20 22 22 21 21 22
24 18 16 15 14 13 13 12 12 12 13 13 13 13 12 11 11 12 13 13 13 13 13 14 14 14 14 13 12 11 12 14 13 10 7 6 6 5 5 5 4 3 3 2 2 3 3 3 3 4 4 4 3 3 3 3 3 3 3 3 3 4 4 4 5 6 7 9 10 11 11 12 13 13 14 14 14 15 16 17 19 20 21 21 21
22 19 17 15 14 12 11 11 11 11 12 12 12 12 12 11 11 11 12 12 12 12 12 12 12 12 12 12 11 11 12 12 11 9 7 6 5 5 5 4 3 2 2 2 2 2 2 2 3 3 3 3 2 2 2 1 1 1 1 1 1 2 2 3 3 4 5 6 7 8 9 10 11 12 12 13 13 14 15 16 17 19 21 21 21
23 20 19 17 15 13 10 9 9 10 10 11 11 11 11 10 10 11 11 11 11 11 11 11 11 11 10 10 10 11 11 11 10 9 7 6 5 5 5 4 3 3 3 2 2 2 2 2 2 2 2 2 2 1 1 0 0 0 0 1 1 1 1 2 2 3 3 4 4 6 7 8 9 10 10 11 12 12 13 14 15 17 19 21 22
23 21 20 18 16 13 11 9 9 9 10 10 10 10 10 10 10 10 10 10 9 9 9 9 10 10 10 10 9 9 9 9 9 8 7 7 6 6 5 5 4 4 3 3 3 2 2 2 2 2 2 2 2 2 1 1 0 0 0 1 1 1 2 2 3 3 3 3 3 4 4 5 6 7 8 9 10 11 12 12 13 14 16 18 20
23 21 21 19 17 15 12 10 9 9 9 9 9 9 9 9 9 9 9 9 8 8 8 9 10 10 10 9 9 8 7 8 7 7 7 7 6 6 6 6 6 5 5 4 4 3 3 3 3 3 3 3 3 3 2 2 1 1 1 1 1 1 2 2 2 3 3 3 3 3 3 3 4 4 5 6 8 9 10 11 12 13 14 15 16
22 21 21 19 17 16 14 11 10 9 8 8 8 8 9 9 9 9 9 8 8 8 7 8 9 9 9 9 8 6 5 6 6 6 6 6 6 6 6 6 6 6 6 6 5 5 5 4 4 4 4 4 4 4 3 3 3 3 3 3 3 2 2 2 2 2 2 3 3 3 3 3 3 3 4 4 5 6 7 8 10 12 13 14 15
21 20 20 19 18 16 15 13 11 10 8 8 8 8 8 8 8 9 9 8 8 7 7 7 8 9 9 8 7 6 5 5 6 6 6 6 6 6 6 7 7 6 6 6 6 6 6 6 6 6 6 6 5 5 5 5 5 5 4 4 4 3 3 3 3 3 3 3 2 2 2 2 2 3 3 4 4 4 5 6 7 9 10 12 13
19 19 18 18 17 16 14 13 12 11 10 8 7 7 7 7 7 8 8 8 7 7 6 7 7 8 8 8 7 7 7 6 6 6 6 6 6 7 7 7 7 7 7 6 6 6 7 7 7 6 6 6 6 6 6 6 6 5 5 5 4 4 4 4 4 4 4 3 3 3 2 2 2 2 3 3 4 4 5 6 6 7 8 9 11
20 18 17 17 16 14 13 12 11 11 11 9 7 6 6 6 6 7 7 7 7 7 6 6 7 7 7 7 7 8 8 7 7 7 7 7 7 7 7 7 7 7 7 7 7 7 7 7 7 7 7 7 6 6 6 6 6 6 6 5 5 5 5 4 5 5 4 4 4 4 4 4 3 3 3 3 4 5 5 6 6 7 7 8 8
20 19 18 16 15 13 12 11 10 9 9 9 7 7 6 5 6 6 6 7 7 6 6 7 7 7 7 7 7 8 8 8 8 8 8 8 8 8 8 8 8 8 8 8 8 8 8 7 7 7 7 7 7 7 6 6 7 7 6 6 5 5 5 5 5 5 5 5 5 5 5 5 5 4 4 4 4 4 5 6 6 7 8 8 8
20 19 19 18 16 14 12 11 9 9 8 7 6 6 5 5 5 5 5 5 6 6 6 6 6 7 7 7 7 8 8 9 9 9 9 9 9 9 9 9 9 9 9 9 9 9 9 8 8 8 8 8 8 7 7 7 7 7 7 6 6 6 6 5 5 5 6 6 6 6 6 6 6 6 5 5 5 5 5 5 6 7 7 8 9
21 20 19 18 17 15 13 12 10 9 8 7 6 5 4 4 4 4 4 4 5 5 6 6 6 7 7 7 7 8 8 9 9 9 10 10 10 10 10 10 10 10 10 9 9 9 9 9 9 9 9 9 9 9 8 8 8 8 8 7 7 7 7 6 6 6 6 6 7 7 7 7 7 7 7 7 7 7 6 6 6 7 7 8 9
22 20 19 18 17 15 14 12 11 10 9 8 7 6 5 4 3 3 3 3 4 4 5 5 6 7 7 7 8 8 8 8 9 9 10 10 10 10 10 10 10 10 10 10 10 10 10 10 10 10 10 10 10 10 10 10 9 9 9 9 8 8 8 7 7 7 7 7 7 7 7 8 8 8 8 8 8 8 7 7 7 7 7 7 8
23 21 19 18 16 15 13 12 11 10 9 8 7 6 5 5 4 3 3 3 3 4 5 5 6 7 7 7 8 8 8 8 9 9 9 9 9 9 10 10 10 10 10 10 10 10 10 10 10 10 11 11 11 11 11 11 11 11 11 10 10 10 9 9 9 8 8 8 7 7 8 8 8 8 9 9 9 9 8 8 8 8 8 7 7
Wind_Direction
292 282 271 265 265 268 271 272 273 273 273 274 275 278 280 281 283 284 281 276 271 268 266 263 262 261 261 260 261 261 262 263 263 263 264 266 267 268 267 266 265 264 264 267 272 277 281 285 287 285 282 280 278 273 266 258 250 246 244 241 242 246 248 253 265 271 257 231 236 248 242 240 246 236 229 226 218 217 221 223 226 229 235 239 241
299 289 276 265 263 266 268 269 270 270 272 274 275 277 279 281 283 283 281 277 272 268 265 263 262 261 261 261 261 262 262 262 262 262 262 263 263 264 264 262 260 260 261 267 272 277 280 283 286 286 283 281 278 274 268 260 250 243 242 241 243 244 244 248 257 268 263 241 234 244 247 250 251 248 249 243 232 227 222 221 225 224 226 230 232
303 293 280 267 262 263 265 266 267 268 271 274 275 277 279 281 283 282 281 278 273 269 265 263 263 262 262 262 262 261 262 262 262 261 261 261 261 261 260 258 256 255 259 266 271 275 278 282 285 285 283 281 279 277 272 265 256 248 242 239 242 243 241 244 251 261 262 251 237 240 245 248 249 248 251 250 245 239 231 230 232 228 227 228 227
304 294 283 270 262 260 261 263 265 266 271 275 276 277 279 281 283 283 281 278 274 270 266 263 262 262 263 263 263 263 263 263 263 262 260 259 259 259 257 254 251 252 258 265 268 272 277 282 285 286 283 281 281 282 279 273 265 256 249 243 241 242 239 240 245 254 258 253 245 238 235 239 245 242 241 245 246 244 242 242 240 237 237 235 232
307 296 285 272 262 258 259 261 263 265 271 276 277 276 278 280 282 282 281 278 274 271 268 264 262 262 263 264 264 264 264 264 263 261 260 258 257 256 255 251 247 249 255 261 265 271 278 283 287 284 279 283 288 290 290 286 278 267 257 249 244 242 239 238 242 248 255 254 249 243 234 232 237 235 232 235 239 242 245 247 247 247 247 246 244
310 299 288 275 264 258 257 260 262 265 270 275 276 276 276 278 280 281 280 278 275 271 268 266 264 263 263 264 264 265 265 264 263 261 260 258 255 253 252 248 244 245 251 256 260 265 271 279 282 277 277 285 292 293 295 296 290 280 269 257 248 244 240 239 241 245 250 252 251 249 244 238 235 235 233 233 237 241 245 249 252 254 255 255 255
311 301 289 278 267 259 257 259 262 264 269 273 275 275 275 276 278 279 278 277 274 271 269 267 266 265 264 264 264 265 265 263 262 261 259 256 253 251 249 246 242 243 248 253 256 256 260 274 282 281 283 287 290 291 289 290 290 288 281 268 255 246 242 239 240 243 247 250 250 250 249 245 239 237 235 235 240 242 244 247 250 253 258 262 263
313 302 290 280 270 262 257 258 260 263 267 271 272 273 274 275 277 278 277 275 273 272 271 269 268 266 264 264 264 264 264 262 261 260 258 255 252 250 247 244 240 240 244 247 249 249 255 270 280 283 287 290 291 290 287 284 283 284 284 277 262 249 243 239 239 242 246 248 249 251 253 251 246 242 237 238 242 243 244 250 253 255 258 261 263
313 303 292 283 275 265 258 257 259 262 265 268 270 271 272 274 276 276 275 274 273 272 271 270 268 267 265 265 264 263 262 261 261 261 258 253 250 248 246 241 236 236 240 243 243 247 255 267 278 284 291 294 293 292 289 282 277 275 276 278 270 255 244 239 238 240 244 247 247 249 252 252 251 250 246 246 250 252 254 259 260 259 259 260 261
314 305 295 288 280 269 259 256 258 260 264 268 269 269 271 272 274 276 275 273 272 271 271 271 269 269 267 265 263 262 261 261 261 260 256 251 247 244 242 238 234 233 236 239 242 248 257 267 277 287 293 292 287 288 288 278 271 271 270 269 269 261 250 241 238 238 241 245 246 247 249 250 250 251 251 252 256 260 260 260 262 265 267 268 266
317 309 300 292 283 271 261 256 257 260 263 268 268 268 269 271 273 275 275 274 273 272 272 271 271 270 268 264 262 261 261 261 261 257 251 247 246 242 238 235 233 233 235 239 244 252 262 271 276 283 291 289 279 277 277 270 267 270 270 267 267 264 255 247 242 240 240 242 244 245 247 249 249 250 252 253 254 256 258 260 263 265 266 268 270
321 314 304 294 284 273 263 257 256 260 264 267 268 267 267 269 271 274 275 275 275 274 273 272 272 270 267 264 262 261 260 259 257 251 243 240 241 242 240 235 232 234 236 239 243 248 262 276 281 285 293 293 276 263 263 264 263 264 262 262 265 269 270 265 256 248 243 242 244 244 245 247 248 248 249 251 253 253 254 256 258 260 262 264 268
324 317 307 296 287 277 266 259 257 260 265 268 268 266 265 267 270 273 274 275 274 275 275 275 273 270 266 265 262 260 258 256 251 244 238 233 230 232 237 238 236 236 235 235 240 248 263 281 286 287 293 293 272 250 253 261 262 260 253 249 251 258 264 270 272 267 256 247 245 245 245 247 248 248 248 250 252 252 252 253 255 257 259 261 264
327 319 310 300 290 279 268 260 257 260 266 269 266 264 264 266 269 271 273 274 275 277 277 276 273 270 267 265 263 260 256 252 247 240 235 232 226 223 229 234 235 237 235 231 241 257 266 275 277 278 286 288 262 239 249 263 262 258 252 247 248 249 249 252 258 264 266 262 254 248 246 246 248 249 250 251 252 253 253 254 255 255 257 260 264
330 321 312 303 292 282 270 261 258 261 267 268 265 263 264 265 267 270 272 275 277 278 278 277 274 271 267 265 263 259 254 250 245 237 232 231 225 221 225 228 231 238 237 231 246 264 259 258 263 270 280 284 258 237 247 258 256 250 246 247 255 257 252 248 246 246 251 259 265 261 253 249 249 249 250 250 251 253 254 255 255 255 257 259 259
333 325 316 305 295 284 272 261 258 263 268 267 263 262 263 264 267 269 272 275 276 277 279 279 276 272 267 264 261 258 254 248 241 235 231 226 220 219 225 226 229 235 236 237 259 265 250 246 255 264 275 284 276 255 249 251 250 244 240 243 248 253 259 261 255 246 242 246 255 262 263 260 258 256 255 254 253 252 252 253 252 251 251 252 253
335 328 319 309 297 286 274 262 259 264 269 267 263 262 264 265 266 269 271 273 276 278 280 280 277 272 265 260 260 258 253 245 238 233 228 222 216 216 223 226 227 232 235 245 257 251 239 242 253 260 267 277 284 280 266 258 255 248 242 242 243 247 255 257 253 252 249 245 248 254 258 260 259 258 258 258 260 263 258 251 249 248 247 248 250
335 329 322 313 300 288 277 265 261 266 270 268 263 262 263 265 266 268 270 273 276 279 281 280 276 270 264 260 259 257 250 239 233 230 225 218 212 216 225 227 227 230 238 248 248 242 239 244 250 256 262 267 274 279 276 267 265 262 257 255 252 254 259 258 250 249 250 248 248 250 252 254 254 253 251 248 249 254 256 254 254 252 248 247 250
333 329 322 315 302 290 280 268 262 267 270 267 263 261 263 265 266 267 269 273 278 280 281 279 274 267 262 258 255 253 249 237 228 228 221 209 207 218 228 228 229 236 244 248 248 245 246 248 249 253 260 263 266 271 269 262 266 276 280 277 271 271 276 276 267 258 253 250 251 251 250 250 249 249 250 249 244 243 247 252 255 254 252 252 254
331 329 323 315 304 293 283 269 262 266 269 266 261 261 262 263 264 266 270 275 278 280 281 278 272 265 259 255 251 250 248 237 225 224 219 210 207 211 218 226 236 246 249 250 250 250 249 250 251 251 255 257 257 257 255 252 257 268 274 274 274 277 282 278 269 264 261 259 260 259 256 254 250 246 245 246 244 241 240 243 245 247 249 252 254
329 328 324 317 307 297 286 270 263 265 267 263 259 259 260 262 264 268 272 276 278 280 280 276 269 261 253 250 248 246 244 236 223 218 218 216 209 206 215 237 246 248 250 251 253 254 254 256 258 256 255 254 253 252 253 252 254 259 264 268 271 272 269 263 261 264 267 268 268 266 262 258 255 252 246 243 243 246 247 245 243 243 244 246 249
327 327 325 318 309 300 288 273 264 264 264 261 257 257 259 261 264 268 271 275 278 280 279 272 263 257 250 245 243 241 238 233 222 215 215 215 208 204 223 247 248 247 253 255 256 259 262 264 265 263 257 254 253 253 254 255 256 255 254 256 260 263 263 263 265 267 269 270 271 271 267 262 260 260 255 247 243 246 251 252 250 247 246 247 247
326 327 325 319 311 302 289 275 265 262 262 259 256 257 259 260 263 268 271 274 277 278 276 267 257 253 245 238 234 230 227 226 221 215 213 209 203 205 220 242 246 249 255 260 263 267 267 265 263 258 253 253 255 256 258 260 263 262 257 254 254 255 257 258 258 259 263 267 268 267 266 266 266 264 261 252 245 244 247 251 254 254 255 256 256
327 327 326 321 312 302 290 277 267 262 260 257 253 255 258 259 263 268 270 273 276 276 271 260 253 249 240 225 216 216 222 223 219 215 214 212 211 213 219 230 241 249 257 262 266 269 268 267 264 259 258 260 260 260 261 261 261 259 253 246 242 241 243 245 244 245 252 262 268 268 267 266 265 264 262 259 255 253 253 254 256 257 257 259 259
330 329 327 323 313 302 289 277 268 261 257 255 253 254 257 259 263 267 270 273 274 271 263 253 247 243 227 207 202 213 222 223 219 220 223 225 226 225 229 237 245 254 261 262 260 261 264 267 266 262 261 260 256 254 254 252 251 250 245 241 241 242 244 246 246 245 247 251 258 263 263 259 257 257 261 265 265 262 256 252 251 254 256 256 255
333 330 328 323 314 302 290 278 268 261 257 254 253 253 255 258 262 266 270 272 271 266 255 244 240 232 213 197 199 211 221 224 225 226 228 234 241 245 248 251 252 253 256 256 252 252 252 250 249 247 247 248 248 249 249 247 245 245 245 246 247 247 247 248 249 251 252 252 254 257 258 257 255 254 256 259 261 259 256 254 253 253 255 256 255
334 330 328 322 312 302 292 280 270 262 257 253 252 252 254 258 262 267 270 271 268 259 242 233 230 219 200 194 203 213 220 227 230 234 242 250 254 252 250 252 251 251 256 257 251 247 246 244 243 243 241 242 244 246 248 249 249 249 249 250 251 251 252 252 253 255 256 256 255 255 256 258 261 261 256 254 254 255 258 258 255 250 247 250 254
333 329 326 320 311 304 294 281 271 264 258 254 253 253 255 259 263 267 268 265 258 246 234 226 218 204 193 196 211 222 230 238 246 252 253 251 251 248 243 246 252 260 269 269 257 252 252 252 252 252 250 250 251 251 252 255 257 259 258 258 257 257 255 254 253 253 254 254 253 252 250 250 254 259 260 256 252 251 254 256 253 246 242 247 251
330 328 326 320 312 304 294 280 271 263 258 255 254 253 254 257 260 262 259 250 238 231 225 211 197 190 188 198 229 252 259 260 260 254 236 221 270 297 282 273 271 269 268 263 254 251 253 252 252 254 256 258 261 262 259 258 259 261 262 261 259 256 252 248 246 246 247 249 253 255 255 250 246 247 255 258 253 249 249 251 249 244 243 248 250
329 328 327 321 314 305 293 280 269 261 257 254 252 251 250 252 255 255 247 237 227 223 219 205 189 183 182 205 285 293 290 290 286 237 222 245 278 273 262 267 273 260 250 248 248 248 250 254 258 262 264 265 265 262 257 253 254 258 262 261 257 251 245 242 241 242 244 247 250 254 256 254 249 246 249 253 254 252 251 251 249 246 248 251 253
329 327 325 321 315 306 293 281 269 261 257 253 250 249 246 248 251 246 236 231 225 216 206 190 178 179 197 285 303 280 265 275 281 258 252 264 263 253 251 256 248 240 240 246 251 253 256 261 266 268 268 263 257 251 248 248 251 258 264 266 264 258 251 247 246 246 247 249 251 253 254 254 254 252 248 246 248 251 253 254 254 252 251 253 255
329 324 322 320 314 304 293 280 269 261 256 252 249 245 243 246 247 239 230 224 215 204 194 187 192 216 254 280 278 252 246 259 271 272 266 255 250 252 253 244 241 243 249 255 257 259 261 264 265 264 257 249 246 246 251 255 259 262 263 264 266 266 263 259 257 255 253 252 253 253 253 253 255 255 251 243 240 242 247 250 253 255 254 253 254
329 323 321 319 313 304 294 283 271 262 257 254 250 244 243 246 243 237 231 218 198 187 202 218 226 235 238 234 229 233 246 263 279 265 243 239 241 239 235 241 250 261 268 264 260 258 256 256 256 252 245 243 249 258 266 270 272 270 264 258 256 257 258 258 258 256 255 255 255 253 253 253 255 256 255 248 240 237 237 240 246 251 253 252 253
330 324 321 320 314 304 295 286 274 264 259 255 249 243 243 243 237 231 229 218 202 197 207 217 219 218 220 223 226 234 244 256 263 242 238 240 244 240 239 251 267 279 275 265 258 250 244 246 249 247 247 252 259 265 273 277 276 276 272 264 257 252 250 250 250 250 251 253 254 252 251 251 252 254 255 252 245 240 237 236 240 245 247 248 248
332 325 321 322 317 307 295 286 275 265 259 256 250 243 240 239 234 226 222 221 217 211 214 221 223 223 226 230 236 244 253 255 240 242 248 256 257 249 251 263 275 277 269 259 250 244 242 243 244 246 250 257 262 268 275 277 276 276 274 271 266 260 254 251 249 250 251 252 253 253 251 250 251 251 250 250 248 244 240 239 239 239 241 244 245
334 328 325 326 322 310 298 288 277 265 260 257 250 240 235 235 233 224 219 221 223 221 223 228 231 233 236 239 244 251 251 231 231 248 263 274 259 252 259 268 266 262 258 247 242 244 243 241 245 250 256 260 263 265 267 268 269 271 269 268 267 263 258 254 252 253 254 254 254 255 255 253 252 250 248 247 247 245 241 238 234 231 232 237 243
336 331 329 331 327 315 303 293 278 264 258 254 243 235 234 234 230 225 221 221 223 224 227 231 234 238 243 247 252 252 235 222 236 259 276 273 255 253 257 255 250 246 244 238 241 250 249 248 251 252 253 257 261 259 258 257 259 262 263 265 265 262 259 255 252 252 254 256 257 258 257 255 254 253 251 248 246 245 244 240 234 229 227 229 234
340 336 336 337 332 321 309 296 279 264 257 251 242 237 236 235 232 229 225 223 225 226 228 230 234 238 242 246 249 244 235 236 249 266 271 263 257 253 249 247 242 235 239 244 249 253 251 250 249 247 249 252 252 253 255 252 251 256 261 264 270 273 270 265 259 255 255 256 257 258 257 255 254 253 253 252 249 245 244 244 241 237 232 227 226
345 345 345 344 338 327 314 298 283 268 257 250 246 243 241 239 238 235 229 227 229 230 230 232 235 237 240 242 241 239 241 247 254 259 258 256 253 247 243 241 236 236 244 248 244 242 240 235 233 236 239 241 239 244 248 243 238 257 275 281 288 299 302 296 291 285 277 270 266 263 260 258 256 254 253 253 251 248 245 244 244 243 241 237 233
351 354 352 348 343 334 321 304 288 272 259 253 249 248 250 250 247 243 237 232 231 231 232 236 240 241 241 239 237 238 243 248 251 252 251 248 245 241 235 232 234 238 239 233 234 235 232 226 228 228 227 230 230 222 211 201 164 99 352 351 357 355 343 331 323 319 312 301 288 279 272 266 262 259 258 256 254 252 249 246 244 243 244 244 242
357 358 355 351 348 339 327 312 293 278 267 258 250 249 254 256 254 251 246 238 232 231 229 232 238 243 243 238 236 238 241 245 248 249 246 244 245 241 237 237 237 236 233 234 237 239 233 230 234 231 228 228 226 218 211 208 157 92 338 326 332 341 347 344 340 337 334 331 320 306 293 283 274 268 265 263 261 259 256 253 249 245 244 245 245
1 1 358 355 351 341 332 320 300 286 277 266 258 256 256 256 258 257 251 244 237 230 225 226 232 237 240 240 240 239 238 238 238 238 240 244 247 244 242 243 242 240 242 242 238 238 241 242 243 241 238 234 232 232 232 233 236 248 264 270 277 300 312 318 326 330 329 328 329 328 320 308 297 285 275 270 269 266 263 261 258 254 250 248 247
3 4 1 359 354 345 337 327 311 298 286 274 267 263 261 263 264 261 255 250 243 232 226 226 230 233 237 241 242 236 224 220 226 235 242 245 246 244 244 242 240 240 243 244 244 245 244 243 244 246 244 242 241 238 239 242 244 246 251 254 257 265 270 277 291 304 306 304 306 315 325 325 323 318 309 301 294 286 278 271 267 262 258 255 252
4 5 5 3 359 352 344 334 324 314 300 286 274 268 269 272 270 266 263 258 250 242 235 230 230 232 236 240 243 242 233 226 230 236 239 240 242 243 242 241 240 239 238 240 243 246 246 245 246 246 243 243 243 241 240 240 239 239 244 250 255 257 259 261 263 264 268 274 276 285 307 319 323 330 331 328 326 320 310 299 290 280 270 263 258
4 7 9 6 2 358 351 342 336 329 320 308 292 282 283 280 274 274 273 265 258 254 247 238 235 235 236 240 246 252 252 249 246 242 238 239 241 239 239 240 241 240 240 240 241 244 247 248 248 248 246 245 245 243 243 244 244 243 244 246 251 256 260 263 263 258 257 263 270 272 282 291 299 314 324 329 335 334 329 322 316 307 297 283 270
6 10 14 11 7 5 1 354 348 342 336 329 317 307 305 295 285 283 279 270 266 262 254 248 244 239 237 240 246 251 256 258 256 254 250 249 247 244 242 242 240 240 241 243 242 243 246 247 250 252 253 251 250 250 251 252 254 255 255 254 256 259 261 263 268 271 269 269 273 274 274 278 286 297 310 323 332 334 334 334 331 326 321 310 294
10 16 20 19 17 16 12 6 2 355 348 343 335 330 324 313 304 298 286 277 272 265 259 259 255 247 244 245 245 249 256 258 258 259 259 256 254 251 248 245 243 242 243 242 242 243 243 244 247 251 254 255 258 258 258 260 262 263 265 267 268 269 270 270 272 276 278 279 281 281 278 277 279 283 290 302 313 321 328 334 336 335 332 326 316
15 20 24 25 26 24 20 16 10 5 2 0 353 346 338 327 321 312 296 284 277 269 268 269 264 259 258 253 248 251 254 254 256 260 260 258 258 256 252 251 249 247 245 244 244 244 244 244 245 248 250 254 258 259 260 263 266 266 269 273 274 275 277 277 275 277 279 280 282 285 285 284 281 279 283 289 296 302 311 319 326 332 335 333 326
19 22 25 27 27 25 23 20 15 11 11 9 1 357 352 339 330 321 303 290 280 275 277 278 274 272 270 264 259 260 257 253 255 256 254 255 258 257 256 256 254 251 251 250 248 247 247 247 247 248 249 250 254 257 259 263 266 269 271 273 273 274 277 278 277 278 278 277 278 281 282 284 285 284 285 286 287 291 297 304 311 320 328 331 331
21 22 24 25 26 24 23 21 18 16 14 9 3 0 355 347 340 330 310 291 276 271 274 274 272 271 270 267 266 266 263 260 260 257 255 257 257 255 256 258 256 255 256 255 252 253 253 251 250 251 252 251 253 255 256 257 261 265 268 270 270 271 273 274 276 277 277 276 277 277 277 279 281 282 283 284 285 286 289 292 297 303 311 319 325
22 23 24 24 25 25 25 24 23 21 18 12 8 4 357 351 345 330 311 291 274 268 265 261 261 263 264 265 268 269 267 267 267 265 264 264 262 260 261 261 259 259 260 258 256 257 256 254 254 255 254 254 255 254 255 255 256 258 261 264 266 267 268 269 271 274 275 276 277 277 276 275 275 275 276 278 280 282 284 285 287 290 293 300 311